Hourly Weather Balta

Today, 15 August, Saturday

Time Temperature Precipitation Wind Pressure Humidity
00:00 +14°C° 0 mm 3 mps 746 mmHg 62%
01:00 +13°C° 0 mm 3 mps 746 mmHg 64%
02:00 +14°C° 0 mm 2 mps 746 mmHg 65%
03:00 +13°C° 0 mm 2 mps 746 mmHg 65%
04:00 +12°C° 0 mm 3 mps 746 mmHg 65%
05:00 +12°C° 0 mm 3 mps 746 mmHg 65%
06:00 +14°C° 0 mm 3 mps 746 mmHg 60%
07:00 +17°C° 0 mm 3 mps 746 mmHg 55%
08:00 +19°C° 0 mm 4 mps 747 mmHg 49%
09:00 +20°C° 0 mm 4 mps 747 mmHg 47%
10:00 +22°C° 0 mm 3 mps 747 mmHg 44%
11:00 +24°C° 0 mm 3 mps 747 mmHg 41%
12:00 +25°C° 0 mm 3 mps 746 mmHg 40%
13:00 +25°C° 0 mm 3 mps 746 mmHg 39%
14:00 +26°C° 0 mm 2 mps 746 mmHg 38%
15:00 +26°C° 0 mm 2 mps 746 mmHg 37%
16:00 +26°C° 0 mm 2 mps 745 mmHg 37%
17:00 +26°C° 0 mm 2 mps 745 mmHg 36%
18:00 +24°C° 0 mm 2 mps 745 mmHg 39%
19:00 +21°C° 0 mm 2 mps 745 mmHg 41%
20:00 +19°C° 0 mm 3 mps 745 mmHg 44%
21:00 +18°C° 0 mm 2 mps 745 mmHg 46%
22:00 +18°C° 0 mm 2 mps 745 mmHg 48%
23:00 +17°C° 0 mm 2 mps 746 mmHg 50%

Tomorrow, 16 August, Sunday

Time Temperature Precipitation Wind Pressure Humidity
00:00 +17°C° 0 mm 2 mps 745 mmHg 51%
01:00 +17°C° 0 mm 3 mps 745 mmHg 53%
02:00 +16°C° 0 mm 3 mps 745 mmHg 54%
03:00 +16°C° 0 mm 2 mps 745 mmHg 57%
04:00 +15°C° 0 mm 2 mps 746 mmHg 60%
05:00 +14°C° 0 mm 2 mps 746 mmHg 63%
06:00 +16°C° 0 mm 2 mps 746 mmHg 58%
07:00 +18°C° 0 mm 3 mps 746 mmHg 53%
08:00 +20°C° 0 mm 3 mps 746 mmHg 49%
09:00 +22°C° 0 mm 3 mps 746 mmHg 44%
10:00 +24°C° 0 mm 2 mps 746 mmHg 39%
11:00 +26°C° 0 mm 2 mps 747 mmHg 34%
12:00 +27°C° 0 mm 2 mps 746 mmHg 32%
13:00 +27°C° 0 mm 2 mps 746 mmHg 29%
14:00 +28°C° 0 mm 2 mps 746 mmHg 27%
15:00 +28°C° 0 mm 2 mps 746 mmHg 27%
16:00 +28°C° 0 mm 2 mps 746 mmHg 27%
17:00 +28°C° 0 mm 2 mps 745 mmHg 27%
18:00 +26°C° 0 mm 2 mps 745 mmHg 31%
19:00 +23°C° 0 mm 1 mps 746 mmHg 36%
20:00 +21°C° 0 mm 1 mps 746 mmHg 40%
21:00 +20°C° 0 mm 1 mps 746 mmHg 42%
22:00 +20°C° 0 mm 1 mps 746 mmHg 44%
23:00 +19°C° 0 mm 1 mps 746 mmHg 47%

Day after tomorrow, 17 August, Monday

Time Temperature Precipitation Wind Pressure Humidity
00:00 +18°C° 0 mm 1 mps 746 mmHg 49%
01:00 +18°C° 0 mm 1 mps 746 mmHg 51%
02:00 +16°C° 0 mm 1 mps 746 mmHg 53%
03:00 +16°C° 0 mm 1 mps 746 mmHg 54%
04:00 +15°C° 0 mm 1 mps 746 mmHg 55%
05:00 +14°C° 0 mm 0 mps 746 mmHg 56%
06:00 +19°C° 0 mm 1 mps 746 mmHg 51%
07:00 +21°C° 0 mm 1 mps 746 mmHg 45%
08:00 +23°C° 0 mm 1 mps 746 mmHg 40%
09:00 +25°C° 0 mm 1 mps 746 mmHg 36%
10:00 +27°C° 0 mm 1 mps 746 mmHg 32%
11:00 +29°C° 0 mm 2 mps 746 mmHg 28%
12:00 +29°C° 0 mm 2 mps 746 mmHg 26%
13:00 +30°C° 0 mm 2 mps 745 mmHg 25%
14:00 +30°C° 0 mm 2 mps 745 mmHg 23%
15:00 +30°C° 0 mm 2 mps 745 mmHg 24%
16:00 +30°C° 0 mm 2 mps 744 mmHg 24%
17:00 +30°C° 0 mm 1 mps 744 mmHg 24%
18:00 +28°C° 0 mm 2 mps 744 mmHg 28%
19:00 +26°C° 0 mm 2 mps 744 mmHg 32%
20:00 +23°C° 0 mm 2 mps 744 mmHg 35%
21:00 +21°C° 0 mm 2 mps 744 mmHg 39%
22:00 +20°C° 0 mm 3 mps 744 mmHg 42%
23:00 +19°C° 0 mm 3 mps 744 mmHg 46%

18 August, Tuesday

Time Temperature Precipitation Wind Pressure Humidity
00:00 +19°C° 0 mm 3 mps 744 mmHg 48%
01:00 +18°C° 0 mm 3 mps 744 mmHg 51%
02:00 +18°C° 0 mm 2 mps 744 mmHg 53%
03:00 +17°C° 0 mm 2 mps 743 mmHg 55%
04:00 +18°C° 0 mm 1 mps 743 mmHg 58%
05:00 +18°C° 0 mm 1 mps 743 mmHg 60%
06:00 +20°C° 0 mm 1 mps 743 mmHg 54%
07:00 +21°C° 0 mm 2 mps 743 mmHg 49%
08:00 +24°C° 0 mm 3 mps 743 mmHg 43%
09:00 +26°C° 0 mm 3 mps 743 mmHg 38%
10:00 +28°C° 0 mm 4 mps 743 mmHg 32%
11:00 +30°C° 0 mm 4 mps 743 mmHg 27%
12:00 +32°C° 0 mm 4 mps 743 mmHg 25%
13:00 +32°C° 0 mm 4 mps 742 mmHg 24%
14:00 +33°C° 0 mm 4 mps 742 mmHg 23%
15:00 +33°C° 0 mm 4 mps 741 mmHg 23%
16:00 +33°C° 0 mm 4 mps 741 mmHg 23%
17:00 +33°C° 0 mm 3 mps 741 mmHg 24%
18:00 +29°C° 0 mm 3 mps 741 mmHg 27%
19:00 +27°C° 0 mm 3 mps 741 mmHg 31%
20:00 +25°C° 0 mm 3 mps 741 mmHg 35%
21:00 +24°C° 0 mm 3 mps 741 mmHg 38%
22:00 +22°C° 0 mm 3 mps 741 mmHg 41%
23:00 +21°C° 0 mm 4 mps 741 mmHg 44%

19 August, Wednesday

Time Temperature Precipitation Wind Pressure Humidity
00:00 +20°C° 0 mm 3 mps 741 mmHg 48%
01:00 +20°C° 0 mm 3 mps 741 mmHg 51%
02:00 +19°C° 0 mm 3 mps 740 mmHg 54%
03:00 +18°C° 0 mm 3 mps 740 mmHg 56%
04:00 +18°C° 0 mm 3 mps 740 mmHg 58%
05:00 +17°C° 0 mm 3 mps 740 mmHg 60%
06:00 +20°C° 0 mm 3 mps 740 mmHg 55%
07:00 +22°C° 0 mm 3 mps 740 mmHg 49%
08:00 +25°C° 0 mm 4 mps 740 mmHg 43%
09:00 +27°C° 0 mm 5 mps 740 mmHg 37%
10:00 +29°C° 0 mm 5 mps 740 mmHg 32%
11:00 +32°C° 0 mm 6 mps 740 mmHg 26%
12:00 +32°C° 0 mm 6 mps 740 mmHg 25%
13:00 +33°C° 0 mm 6 mps 740 mmHg 24%
14:00 +34°C° 0 mm 6 mps 740 mmHg 23%
15:00 +34°C° 0 mm 5 mps 739 mmHg 24%
16:00 +33°C° 0 mm 5 mps 739 mmHg 24%
17:00 +33°C° 0 mm 4 mps 739 mmHg 25%
18:00 +30°C° 0 mm 4 mps 739 mmHg 32%
19:00 +28°C° 0 mm 4 mps 739 mmHg 38%
20:00 +26°C° 0 mm 4 mps 739 mmHg 44%
21:00 +25°C° 0 mm 3 mps 739 mmHg 46%
22:00 +24°C° 0 mm 3 mps 739 mmHg 48%
23:00 +24°C° 0 mm 3 mps 739 mmHg 50%

20 August, Thursday

Time Temperature Precipitation Wind Pressure Humidity
00:00 +22°C° 0 mm 3 mps 739 mmHg 52%
01:00 +23°C° 0 mm 2 mps 739 mmHg 54%
02:00 +23°C° 0 mm 2 mps 739 mmHg 56%
03:00 +21°C° 0.2 mm 2 mps 739 mmHg 60%
04:00 +21°C° 0.2 mm 2 mps 739 mmHg 65%
05:00 +20°C° 0.2 mm 2 mps 739 mmHg 69%
06:00 +21°C° 0.1 mm 2 mps 739 mmHg 67%
07:00 +22°C° 0.1 mm 3 mps 739 mmHg 66%
08:00 +24°C° 0.1 mm 3 mps 740 mmHg 65%
09:00 +25°C° 0 mm 3 mps 740 mmHg 59%
10:00 +27°C° 0 mm 3 mps 740 mmHg 53%
11:00 +28°C° 0 mm 4 mps 740 mmHg 47%
12:00 +28°C° 0.2 mm 4 mps 740 mmHg 47%
13:00 +28°C° 0.2 mm 4 mps 740 mmHg 47%
14:00 +28°C° 0.2 mm 4 mps 740 mmHg 47%
15:00 +26°C° 1 mm 5 mps 740 mmHg 58%
16:00 +23°C° 1 mm 5 mps 740 mmHg 69%
17:00 +21°C° 1 mm 6 mps 740 mmHg 79%
18:00 +21°C° 0.3 mm 5 mps 740 mmHg 81%
19:00 +20°C° 0.3 mm 5 mps 740 mmHg 83%
20:00 +20°C° 0.3 mm 4 mps 741 mmHg 85%
21:00 +20°C° 0 mm 4 mps 741 mmHg 84%
22:00 +20°C° 0 mm 4 mps 741 mmHg 83%
23:00 +20°C° 0 mm 4 mps 741 mmHg 82%
Show more